Weather History for Nantucket, MA

Change the Weather History Date:

Tuesday, September 17, 2013

  Actual Average Record
Temperature  
Mean Temperature 51 °F -  
Max Temperature 59 °F 70 °F 76 °F (1976)
Min Temperature 45 °F 55 °F 40 °F (1966)
Degree Days  
Heating Degree Days 14    
Growing Degree Days 1 (Base 50)    
Moisture  
Dew Point 42 °F    
Average Humidity 64    
Maximum Humidity 88    
Minimum Humidity 47    
Precipitation  
Precipitation 0.00 in - - ()
Sea Level Pressure  
Sea Level Pressure 30.29 in    
Wind  
Wind Speed 20 mph (NNE)    
Max Wind Speed 26 mph    
Max Gust Speed 34 mph    
Visibility 10 miles    
Events      
Averages and records for this station are not official NWS values.
T = Trace of Precipitation, MM = Missing Value Source: NWS Daily Summary

Daily Weather History Graph

Daily Weather History Graph

Search for Another Location

Airport:

Trip Planner

Search our weather history database for the weather conditions in past years. The results will help you decide how hot, cold, wet, or windy it might be!

Date:

Astronomy

Sep. 17, 2013 Rise Set
Actual Time 6:22 AM EDT 6:45 PM EDT
Civil Twilight 5:55 AM EDT 7:13 PM EDT
Nautical Twilight 5:22 AM EDT 7:45 PM EDT
Astronomical Twilight 4:49 AM EDT 8:18 PM EDT
Moon 5:31 PM EDT (9/17) 4:12 AM EDT (9/17)
Length of Visible Light 13h 18m
Length of Day
12h 22m
Waxing Gibbous, 96% of the Moon is Illuminated
Sep 17
Waxing Gibbous
Sep 19
Full
Sep 26
Last Quarter
Oct 4
New
Oct 11
First Quarter

Hourly Weather History & Observations

Time (EDT) Temp. Windchill Dew Point Humidity Pressure Visibility Wind Dir Wind Speed Gust Speed Precip Events Conditions
12:53 AM 55.9 °F - 51.1 °F 84% 30.17 in 10.0 mi North 26.5 mph 34.5 mph 0.00 in   Overcast
1:07 AM 55.4 °F - 51.8 °F 88% 30.17 in 10.0 mi North 25.3 mph 29.9 mph N/A   Overcast
1:29 AM 55.4 °F - 48.2 °F 77% 30.18 in 10.0 mi North 20.7 mph 28.8 mph N/A   Overcast
1:53 AM 55.9 °F - 48.0 °F 75% 30.19 in 10.0 mi NNE 24.2 mph 31.1 mph N/A   Overcast
2:53 AM 55.9 °F - 44.1 °F 64% 30.20 in 10.0 mi NNE 21.9 mph 28.8 mph N/A   Overcast
3:08 AM 55.4 °F - 42.8 °F 63% 30.20 in 10.0 mi NNE 21.9 mph 33.4 mph N/A   Overcast
3:53 AM 54.0 °F - 43.0 °F 66% 30.22 in 10.0 mi NNE 20.7 mph 34.5 mph N/A   Overcast
4:53 AM 54.0 °F - 43.0 °F 66% 30.23 in 10.0 mi NNE 20.7 mph 27.6 mph N/A   Overcast
5:53 AM 54.0 °F - 44.1 °F 69% 30.25 in 10.0 mi NNE 17.3 mph - N/A   Mostly Cloudy
6:53 AM 53.1 °F - 43.0 °F 69% 30.27 in 10.0 mi NNE 15.0 mph 24.2 mph 0.00 in   Mostly Cloudy
7:31 AM 53.6 °F - 42.8 °F 67% 30.29 in 10.0 mi North 21.9 mph 25.3 mph N/A   Mostly Cloudy
7:53 AM 53.1 °F - 39.9 °F 61% 30.30 in 10.0 mi North 17.3 mph 29.9 mph N/A   Mostly Cloudy
8:53 AM 54.0 °F - 39.0 °F 57% 30.33 in 10.0 mi NNE 20.7 mph 29.9 mph N/A   Overcast
9:53 AM 55.9 °F - 37.9 °F 51% 30.35 in 10.0 mi NNE 21.9 mph 31.1 mph N/A   Mostly Cloudy
10:53 AM 55.9 °F - 37.9 °F 51% 30.36 in 10.0 mi North 23.0 mph 28.8 mph N/A   Overcast
11:53 AM 57.0 °F - 37.9 °F 49% 30.36 in 10.0 mi North 23.0 mph 27.6 mph N/A   Overcast
12:53 PM 57.0 °F - 37.9 °F 49% 30.36 in 10.0 mi NNE 19.6 mph 28.8 mph N/A   Scattered Clouds
1:53 PM 57.9 °F - 37.9 °F 47% 30.35 in 10.0 mi NNE 23.0 mph 28.8 mph N/A   Scattered Clouds
2:53 PM 57.9 °F - 37.9 °F 47% 30.33 in 10.0 mi NNE 21.9 mph 28.8 mph N/A   Clear
3:53 PM 57.9 °F - 39.0 °F 49% 30.33 in 10.0 mi North 15.0 mph 26.5 mph N/A   Clear
4:53 PM 55.9 °F - 37.0 °F 49% 30.32 in 10.0 mi North 13.8 mph 24.2 mph N/A   Clear
5:53 PM 55.0 °F - 39.9 °F 57% 30.32 in 10.0 mi NNE 15.0 mph - N/A   Clear
6:53 PM 53.1 °F - 41.0 °F 64% 30.32 in 10.0 mi NNE 13.8 mph - N/A   Clear
7:53 PM 51.1 °F - 39.9 °F 66% 30.32 in 10.0 mi NNE 6.9 mph - N/A   Clear
8:53 PM 51.1 °F - 39.9 °F 66% 30.34 in 10.0 mi NNE 5.8 mph - N/A   Clear
9:53 PM 50.0 °F - 42.1 °F 74% 30.33 in 10.0 mi Calm Calm - N/A   Clear
10:53 PM 45.0 °F 41.2 °F 39.9 °F 82% 30.33 in 10.0 mi NNE 6.9 mph - N/A   Clear
11:53 PM 45.0 °F 41.2 °F 41.0 °F 86% 30.32 in 10.0 mi North 6.9 mph - N/A   Clear